TimeAST,TemperatureF,Dew PointF,Humidity,Sea Level PressureIn,VisibilityMPH,Wind Direction,Wind SpeedMPH,Gust SpeedMPH,PrecipitationIn,Events,Conditions,WindDirDegrees,DateUTC
12:00 AM,84.2,75.2,74,29.86,-9999.0,North,-9999.0,-,N/A,,Unknown,0,2011-10-09 04:00:00
1:00 AM,82.4,75.2,79,29.83,-9999.0,North,-9999.0,-,N/A,,Unknown,0,2011-10-09 05:00:00
2:00 AM,82.4,75.2,79,29.83,-9999.0,North,-9999.0,-,N/A,,Unknown,0,2011-10-09 06:00:00
3:00 AM,82.4,75.2,79,29.80,-9999.0,North,-9999.0,-,N/A,,Unknown,0,2011-10-09 07:00:00
4:00 AM,82.4,75.2,79,29.80,-9999.0,North,-9999.0,-,N/A,,Unknown,0,2011-10-09 08:00:00
5:00 AM,83,75,71,,,Calm,Calm,,,,Clear,,2011-10-09 09:00:00
5:00 AM,82.4,75.2,79,29.80,-9999.0,North,-9999.0,-,N/A,,Unknown,0,2011-10-09 09:00:00
6:00 AM,82.4,75.2,79,29.83,-9999.0,North,-9999.0,-,N/A,,Unknown,0,2011-10-09 10:00:00
7:00 AM,82.4,73.4,74,29.86,-9999.0,North,-9999.0,-,N/A,,Unknown,0,2011-10-09 11:00:00
8:00 AM,85,76,67,29.89,19,East,20.7,,,,Scattered Clouds,100,2011-10-09 12:00:00
8:00 AM,84.2,75.2,74,29.86,6.2,East,20.7,-,N/A,,Partly Cloudy,100,2011-10-09 12:00:00
9:00 AM,86.0,77.0,74,29.89,6.2,ESE,24.2,-,N/A,,Partly Cloudy,110,2011-10-09 13:00:00
10:00 AM,87.8,75.2,66,29.89,6.2,East,23.0,-,N/A,,Partly Cloudy,100,2011-10-09 14:00:00
11:00 AM,88,77,62,29.92,19,East,21.9,,,,Scattered Clouds,100,2011-10-09 15:00:00
11:00 AM,87.8,77.0,70,29.89,6.2,East,21.9,-,N/A,,Partly Cloudy,100,2011-10-09 15:00:00
12:00 PM,89.6,75.2,62,29.89,-9999.0,North,-9999.0,-,N/A,,Unknown,0,2011-10-09 16:00:00
1:00 PM,87.8,77.0,70,29.86,6.2,East,20.7,-,N/A,,Partly Cloudy,100,2011-10-09 17:00:00
2:00 PM,87.8,77.0,70,29.83,-9999.0,North,-9999.0,-,N/A,,Unknown,0,2011-10-09 18:00:00
3:00 PM,87.8,75.2,66,29.83,-9999.0,North,-9999.0,-,N/A,,Unknown,0,2011-10-09 19:00:00
4:00 PM,86.0,77.0,74,29.80,-9999.0,North,-9999.0,-,N/A,,Unknown,0,2011-10-09 20:00:00
5:00 PM,85,76,69,29.83,19,Calm,Calm,,,,Partly Cloudy,,2011-10-09 21:00:00
5:00 PM,86.0,77.0,74,29.80,6.2,East,12.7,-,N/A,,Partly Cloudy,100,2011-10-09 21:00:00
6:00 PM,84.2,75.2,74,29.80,6.2,Calm,Calm,-,N/A,,Partly Cloudy,0,2011-10-09 22:00:00
7:00 PM,82.4,77.0,84,29.80,6.2,East,10.4,-,N/A,,Partly Cloudy,90,2011-10-09 23:00:00
8:00 PM,83,76,75,29.83,16,East,13.8,,,,Scattered Clouds,90,2011-10-10 00:00:00
8:00 PM,82.4,77.0,84,29.83,6.2,East,13.8,-,N/A,,Partly Cloudy,90,2011-10-10 00:00:00
9:00 PM,82.4,77.0,84,29.83,-9999.0,North,-9999.0,-,N/A,,Unknown,0,2011-10-10 01:00:00
10:00 PM,82.4,77.0,84,29.86,-9999.0,North,-9999.0,-,N/A,,Unknown,0,2011-10-10 02:00:00
11:00 PM,83,77,77,,6,Calm,Calm,,,,Clear,,2011-10-10 03:00:00
11:00 PM,82.4,77.0,84,29.86,-9999.0,North,-9999.0,-,N/A,,Unknown,0,2011-10-10 03:00:00